Weather History for Barnwell, SC

Change the Weather History Date:

Sunday, March 10, 2013

  Actual Average (KOGB) Record (KOGB)
Temperature  
Mean Temperature 52 °F 55 °F  
Max Temperature 69 °F 67 °F 87 °F (1974)
Min Temperature 35 °F 43 °F 26 °F (1966)
Degree Days  
Heating Degree Days 13 10  
Month to date heating degree days 114  
Since 1 July heating degree days 2046  
Cooling Degree Days 0 1  
Month to date cooling degree days 2  
Year to date cooling degree days 5  
Growing Degree Days 2 (Base 50)    
Moisture  
Dew Point 41 °F    
Average Humidity 65    
Maximum Humidity 100    
Minimum Humidity 33    
Precipitation  
Precipitation 0.00 in 0.13 in 1.29 in (1978)
Month to date precipitation 1.32  
Year to date precipitation 8.89  
Sea Level Pressure  
Sea Level Pressure 30.23 in    
Wind  
Wind Speed 3 mph (SE)    
Max Wind Speed 13 mph    
Max Gust Speed 18 mph    
Visibility 10 miles    
Events      
T = Trace of Precipitation, MM = Missing Value Source: NWS Daily Summary

Daily Weather History Graph

Daily Weather History Graph

Search for Another Location

Airport:

Trip Planner

Search our weather history database for the weather conditions in past years. The results will help you decide how hot, cold, wet, or windy it might be!

Date:

Astronomy

Mar. 10, 2013 Rise Set
Actual Time 7:42 AM EDT 7:29 PM EDT
Civil Twilight 7:17 AM EDT 7:54 PM EDT
Nautical Twilight 6:48 AM EDT 8:23 PM EDT
Astronomical Twilight 6:19 AM EDT 8:52 PM EDT
Moon 6:39 AM EDT (3/10) 6:36 PM EDT (3/10)
Length of Visible Light 12h 37m
Length of Day
11h 47m
Waning Crescent, 2% of the Moon is Illuminated
Mar 10
Waning Crescent
Mar 11
New
Mar 19
First Quarter
Mar 27
Full
Apr 3
Last Quarter

Hourly Weather History & Observations

Time (EDT) Temp. Dew Point Humidity Pressure Visibility Wind Dir Wind Speed Gust Speed Precip Events Conditions
12:15 AM 42.8 °F 35.6 °F 76% 30.28 in 10.0 mi Calm Calm - N/A   Clear
12:35 AM 41.0 °F 35.6 °F 81% 30.28 in 10.0 mi Calm Calm - N/A   Clear
1:15 AM 39.2 °F 35.6 °F 87% 30.27 in 10.0 mi Calm Calm - N/A   Clear
1:35 AM 39.2 °F 37.4 °F 93% 30.27 in 10.0 mi Calm Calm - N/A   Clear
1:55 AM 39.2 °F 35.6 °F 87% 30.27 in 10.0 mi Calm Calm - N/A   Clear
3:15 AM 39.2 °F 35.6 °F 87% 30.26 in 10.0 mi Calm Calm - N/A   Clear
3:35 AM 39.2 °F 35.6 °F 87% 30.26 in 10.0 mi Calm Calm - N/A   Clear
3:55 AM 39.2 °F 35.6 °F 87% 30.25 in 10.0 mi Calm Calm - N/A   Clear
4:15 AM 37.4 °F 35.6 °F 93% 30.24 in 10.0 mi Calm Calm - N/A   Clear
4:35 AM 37.4 °F 35.6 °F 93% 30.23 in 10.0 mi Calm Calm - N/A   Clear
4:55 AM 37.4 °F 35.6 °F 93% 30.24 in 10.0 mi Calm Calm - N/A   Clear
5:15 AM 35.6 °F 35.6 °F 100% 30.25 in 10.0 mi Calm Calm - N/A   Clear
5:35 AM 37.4 °F 35.6 °F 93% 30.25 in 10.0 mi Calm Calm - N/A   Clear
5:55 AM 35.6 °F 35.6 °F 100% 30.25 in 10.0 mi Calm Calm - N/A   Clear
6:15 AM 35.6 °F 35.6 °F 100% 30.26 in 10.0 mi Calm Calm - N/A   Clear
6:55 AM 35.6 °F 33.8 °F 93% 30.25 in 10.0 mi Calm Calm - N/A   Clear
7:15 AM 35.6 °F 35.6 °F 100% 30.25 in 10.0 mi Calm Calm - N/A   Clear
8:35 AM 41.0 °F 39.2 °F 93% 30.28 in 10.0 mi Calm Calm - N/A   Clear
8:55 AM 42.8 °F 39.2 °F 87% 30.29 in 10.0 mi Calm Calm - N/A   Clear
9:15 AM 42.8 °F 39.2 °F 87% 30.30 in 10.0 mi Calm Calm - N/A   Clear
9:35 AM 44.6 °F 41.0 °F 87% 30.30 in 10.0 mi Calm Calm - N/A   Clear
9:55 AM 46.4 °F 42.8 °F 87% 30.29 in 10.0 mi Calm Calm - N/A   Clear
10:15 AM 48.2 °F 42.8 °F 82% 30.29 in 10.0 mi Calm Calm - N/A   Clear
10:35 AM 50.0 °F 42.8 °F 76% 30.28 in 10.0 mi Calm Calm - N/A   Clear
10:55 AM 53.6 °F 42.8 °F 67% 30.29 in 10.0 mi Calm Calm - N/A   Clear
11:15 AM 57.2 °F 41.0 °F 55% 30.29 in 10.0 mi Calm Calm - N/A   Clear
11:35 AM 60.8 °F 39.2 °F 45% 30.29 in 10.0 mi ESE 4.6 mph - N/A   Clear
11:55 AM 60.8 °F 39.2 °F 45% 30.28 in 10.0 mi SE 8.1 mph - N/A   Clear
12:15 PM 62.6 °F 37.4 °F 39% 30.27 in 10.0 mi ESE 9.2 mph - N/A   Clear
12:35 PM 62.6 °F 39.2 °F 42% 30.27 in 10.0 mi ESE 5.8 mph - N/A   Clear
12:55 PM 62.6 °F 41.0 °F 45% 30.26 in 10.0 mi East 4.6 mph - N/A   Clear
1:15 PM 64.4 °F 41.0 °F 42% 30.25 in 10.0 mi ESE 9.2 mph - N/A   Clear
1:35 PM 66.2 °F 41.0 °F 40% 30.24 in 10.0 mi SSE 4.6 mph - N/A   Clear
1:55 PM 66.2 °F 41.0 °F 40% 30.23 in 10.0 mi East 3.5 mph - N/A   Clear
2:15 PM 68.0 °F 41.0 °F 37% 30.22 in 10.0 mi SE 9.2 mph - N/A   Clear
2:35 PM 68.0 °F 39.2 °F 35% 30.21 in 10.0 mi ESE 11.5 mph 16.1 mph N/A   Clear
2:55 PM 68.0 °F 41.0 °F 37% 30.20 in 10.0 mi SE 9.2 mph - N/A   Clear
3:15 PM 69.8 °F 39.2 °F 33% 30.20 in 10.0 mi SE 10.4 mph 18.4 mph N/A   Clear
3:35 PM 68.0 °F 42.8 °F 40% 30.20 in 10.0 mi ESE 5.8 mph - N/A   Clear
3:55 PM 69.8 °F 42.8 °F 38% 30.19 in 10.0 mi SE 10.4 mph - N/A   Clear
4:15 PM 68.0 °F 42.8 °F 40% 30.19 in 10.0 mi SE 12.7 mph - N/A   Clear
4:35 PM 69.8 °F 42.8 °F 38% 30.19 in 10.0 mi SE 8.1 mph - N/A   Clear
4:55 PM 69.8 °F 42.8 °F 38% 30.18 in 10.0 mi ESE 10.4 mph - N/A   Clear
5:15 PM 68.0 °F 42.8 °F 40% 30.19 in 10.0 mi SE 6.9 mph - N/A   Clear
5:35 PM 69.8 °F 44.6 °F 40% 30.18 in 10.0 mi SE 9.2 mph - N/A   Clear
5:55 PM 69.8 °F 44.6 °F 40% 30.18 in 10.0 mi SSE 4.6 mph - N/A   Clear
6:15 PM 68.0 °F 44.6 °F 43% 30.18 in 10.0 mi ESE 11.5 mph - N/A   Clear
6:35 PM 68.0 °F 44.6 °F 43% 30.17 in 10.0 mi ESE 9.2 mph - N/A   Clear
6:55 PM 66.2 °F 44.6 °F 46% 30.17 in 10.0 mi SE 9.2 mph - N/A   Clear
7:15 PM 66.2 °F 44.6 °F 46% 30.17 in 10.0 mi SE 9.2 mph - N/A   Clear
7:35 PM 64.4 °F 44.6 °F 49% 30.18 in 10.0 mi SSE 4.6 mph - N/A   Clear
7:55 PM 62.6 °F 44.6 °F 52% 30.18 in 10.0 mi SE 4.6 mph - N/A   Clear
8:15 PM 62.6 °F 46.4 °F 55% 30.19 in 10.0 mi SE 5.8 mph - N/A   Clear
8:35 PM 60.8 °F 46.4 °F 59% 30.20 in 10.0 mi SSE 6.9 mph - N/A   Clear
9:15 PM 60.8 °F 48.2 °F 63% 30.21 in 10.0 mi SSE 5.8 mph - N/A   Clear
9:35 PM 59.0 °F 48.2 °F 67% 30.21 in 10.0 mi SE 6.9 mph - N/A   Clear
9:55 PM 57.2 °F 48.2 °F 72% 30.20 in 10.0 mi SE 6.9 mph - N/A   Clear
10:15 PM 57.2 °F 48.2 °F 72% 30.20 in 10.0 mi SE 8.1 mph - N/A   Clear
10:35 PM 57.2 °F 48.2 °F 72% 30.21 in 10.0 mi SE 6.9 mph - N/A   Clear
10:55 PM 57.2 °F 48.2 °F 72% 30.21 in 10.0 mi SE 5.8 mph - N/A   Clear
11:15 PM 55.4 °F 46.4 °F 72% 30.22 in 10.0 mi Calm Calm - N/A   Clear
11:35 PM 55.4 °F 46.4 °F 72% 30.22 in 10.0 mi ESE 5.8 mph - N/A   Clear
11:55 PM 55.4 °F 44.6 °F 67% 30.21 in 10.0 mi ESE 6.9 mph - N/A   Clear
12:15 AM 53.6 °F 44.6 °F 72% 30.21 in 10.0 mi ESE 6.9 mph - N/A   Clear
12:35 AM 53.6 °F 42.8 °F 67% 30.20 in 10.0 mi East 3.5 mph - N/A   Clear
12:55 AM 51.8 °F 42.8 °F 71% 30.20 in 10.0 mi East 4.6 mph - N/A   Clear